Regional Weather Roundup
Issued by NWS

Home | Current Version | Previous Version | Graphics & Text | Print | Product List | Glossary On
Versions: 1 2 3 4 5 6 7 8 9 10 11 12 13 14 15 16 17 18 19 20 21 22 23 24 25 26 27 28 29 30 31 32 33 34 35 36 37 38 39 40 41 42 43 44 45 46 47 48 49 50
000
ASUS43 KIND 241259
RWRIN

WEATHER ROUNDUP FOR INDIANA
NATIONAL WEATHER SERVICE INDIANAPOLIS IN
900 AM EDT THU APR 24 2014

NOTE: "FAIR" INDICATES FEW OR NO CLOUDS BELOW 12,000 FEET WITH NO
SIGNIFICANT WEATHER AND/OR OBSTRUCTIONS TO VISIBILITY.

* - STATION DOES NOT REPORT WEATHER SUCH AS PRECIPITATION OR FOG.

+ - STATION NOT QUALITY CONTROLLED BY THE NATIONAL WEATHER SERVICE.
    USE DATA WITH CAUTION...ESPECIALLY DEWPOINT AND RELATIVE
    HUMIDITY OBSERVATIONS.

INZ001>003-010>013-019-020-241400-
NORTHWEST INDIANA

CITY           SKY/WX    TMP DP  RH WIND       PRES   REMARKS
GARY /AIRPORT/ CLOUDY    50  37  62 SE14      30.02F
VALPARAISO     CLOUDY    48  35  60 SE14      30.04F

$$

LMZ046-743>745-241400-
SOUTHERN LAKE MICHIGAN

STATION/POSITION TIME  TEMP WIND        PRES
                       AIR  DIR/SP/G
                 (UTC) (F)  (DEG/KT/KT) (MB)
MICHIGAN CITY    1200   49  100/ 12/ 17   N/A

$$

INZ004-005-014>016-021>024-241400-
NORTH CENTRAL INDIANA

CITY           SKY/WX    TMP DP  RH WIND       PRES   REMARKS
ELKHART        PTSUNNY   50  32  50 SE10      30.09F
GOSHEN         CLOUDY    50  34  54 SE14      30.10F
PERU/GRISSOM   CLOUDY    50  36  57 SE18      30.07F
SOUTH BEND     CLOUDY    52  34  50 SE15      30.08F

$$

INZ006>009-017-018-025>027-241400-
NORTHEAST INDIANA

CITY           SKY/WX    TMP DP  RH WIND       PRES   REMARKS
ANGOLA *+      MOSUNNY   45  32  61 SE8       30.13F
FORT WAYNE     CLOUDY    48  30  49 SE12      30.13S

$$

INZ028-029-035-036-043>045-051>053-241400-
WEST CENTRAL INDIANA

CITY           SKY/WX    TMP DP  RH WIND       PRES   REMARKS
GREENCASTLE +  CLOUDY    50  36  57 E10       30.06R
LAFAYETTE      CLOUDY    50  36  58 SE14G22   30.05R
TERRE HAUTE    PTSUNNY   53  37  54 E10       30.03S

$$

INZ030>032-037>040-046>048-054>057-064-065-241400-
CENTRAL INDIANA

CITY           SKY/WX    TMP DP  RH WIND       PRES   REMARKS
ANDERSON       SUNNY     48  27  43 E12G23    30.11
INDIANAPOLIS   CLOUDY    50  34  54 E15       30.07R
-EAGLE CREEK   CLOUDY    50  33  52 E15       30.07S
KOKOMO *+      PTSUNNY   50  34  53 SE16      30.08F
MT COMFORT *+  CLOUDY    50  30  46 E13G18    30.09S
SHELBYVILLE    PTSUNNY   52  32  46 E13       30.08R

$$

INZ033-034-041-042-049-050-058-059-241400-
EAST CENTRAL INDIANA

CITY           SKY/WX    TMP DP  RH WIND       PRES   REMARKS
MUNCIE         PTSUNNY   49  28  44 SE12      30.11S

$$

INZ060-061-067>069-081>083-085>088-241400-
SOUTHWEST INDIANA

CITY           SKY/WX    TMP DP  RH WIND       PRES   REMARKS
EVANSVILLE     CLOUDY    52  36  54 E5        30.02R
HUNTINGBURG *+ CLOUDY    54  36  50 SE10      30.02R

$$

INZ062-063-066-070>080-084-089>092-241400-
SOUTH CENTRAL AND SOUTHEAST INDIANA

CITY           SKY/WX    TMP DP  RH WIND       PRES   REMARKS
BLOOMINGTON    PTSUNNY   52  34  50 SE13      30.04R
SEYMOUR +      PTSUNNY   48  21  34 E14       30.07R

$$




USA.gov is the U.S. government's official web portal to all federal, state and local government web resources and services.